Location: Borgo Montello
(41.5000°N, 12.7667°E)
Time: 21:19:02
(UTC+00:00)

Daily predictions for brighter satellites

Satellite Brightness Start Highest point End
(mag) Time Altitude Azimuth Time Altitude Azimuth Time Altitude Azimuth
MOS 1 Rocket 4.3 17:22:33 10° NE 17:25:49 21° E 17:29:01 10° SE
PSLV R/B 4.1 17:22:02 10° NNE 17:26:15 83° WNW 17:30:27 10° SSW
ARGOS 4.2 17:24:05 10° ESE 17:28:18 24° ENE 17:32:32 10° NNE
NOSS 2-2 (C) 4.3 17:25:18 10° SW 17:28:40 44° NW 17:32:19 10° NNE
NOSS 3-2 (A) 4.3 17:23:15 10° NNW 17:30:39 55° NE 17:38:55 10° SE
CZ-2C R/B 4.2 17:30:34 10° NE 17:33:51 16° E 17:37:09 10° SE
Cosmos 2151 Rocket 4.2 17:33:30 10° SSE 17:37:30 34° E 17:41:34 10° NNE
Meteor 1-21 4.4 17:32:50 10° NNW 17:38:27 79° W 17:44:02 10° S
Lacrosse 5 rocket 4.1 17:38:59 10° NNW 17:39:54 11° N 17:40:49 10° N
Cosmos 1975 Rocket 3.2 17:37:21 10° N 17:41:41 76° W 17:45:59 10° S
HJ-1C 4.2 17:40:04 10° SE 17:42:59 30° ENE 17:45:54 10° N
Shenzhou-11 Module 2.1 17:48:41 10° SW 17:50:36 31° SSE 17:51:33 20° ESE
COSMO-SKYMED 1 4.0 17:47:05 10° N 17:51:12 43° WNW 17:55:19 10° SW
Ariane Rocket 4.2 17:47:54 11° ESE 17:51:29 22° ENE 17:55:20 10° NNE
H-2A R/B 2.2 17:47:26 10° SE 17:52:12 48° ENE 17:57:07 10° N
Nadezhda 4 Rocket 4.2 17:48:45 10° N 17:54:36 45° ENE 18:00:26 10° SSE
Exosat Rocket 3.9 17:51:14 10° S 17:56:32 42° ESE 18:01:14 10° NE
USA 116 3.7 17:57:42 10° NNE 18:01:28 90° NE 18:05:44 10° SSW
Cosmos 1844 Rocket 2.6 17:56:19 10° SSW 18:01:52 83° ESE 18:07:29 10° NNE
Cosmos 2278 Rocket 3.9 18:02:53 10° SE 18:10:00 - ENE 18:03:58 13° SE
Cosmos 1707 3.0 18:02:57 10° NNW 18:06:47 68° W 18:10:34 10° S
Cosmos 1626 4.1 18:06:07 10° NE 18:07:28 14° ENE 18:07:28 14° ENE
CZ-2C R/B 3.1 18:05:55 10° WSW 18:08:35 18° SSW 18:10:59 11° SSE
NOSS 3-2 (C) 4.2 18:01:27 10° NNW 18:08:56 60° NE 18:16:08 15° SE
Cosmos 2034 Rocket 4.0 18:03:01 10° S 18:09:18 67° E 18:15:35 10° NNE
Cosmos 1844 3.6 18:03:38 10° SSW 18:09:19 77° ESE 18:14:58 10° NNE
NOSS 3-4 (A) 3.6 18:05:18 10° S 18:10:52 47° ESE 18:16:43 10° NE
NOSS 3-4 (C) 3.6 18:05:26 10° S 18:10:59 46° ESE 18:16:49 10° NE
USA 186 2.9 18:11:03 25° E 18:11:21 25° ENE 18:14:07 10° NNE
ISS -1.3 18:09:30 10° WNW 18:11:55 18° NNW 18:14:19 10° NNE
Meteor 2-5 Rocket 4.4 18:09:36 10° N 18:14:47 35° ENE 18:18:15 19° SE
Cosmos 1300 Rocket 4.2 18:13:50 10° SSW 18:18:11 61° W 18:22:35 10° N
Okean 1 Rocket 3.3 18:17:05 10° SSE 18:21:22 46° E 18:25:40 10° NNE
Resurs 01 Rocket 3.7 18:25:52 12° NE 18:25:52 12° NE 18:26:59 10° NE
CENTAUR R/B 3.2 18:19:56 10° NNW 18:28:06 72° NE 18:34:46 20° SE
Cosmos 1833 Rocket 4.0 18:24:43 10° N 18:29:06 22° NE 18:30:12 21° ENE
CSL-04 Rocket 4.1 18:24:53 10° S 18:30:16 65° WSW 18:35:46 10° NNW
Cosmos 1766 3.3 18:28:37 10° S 18:32:24 50° E 18:36:14 10° NNE
Okean 2 Rocket 4.5 18:28:33 10° SSW 18:32:47 41° WNW 18:37:01 10° N
YAOGAN 1 4.3 18:29:11 10° SSW 18:33:04 33° W 18:37:00 10° NNW
ATLAS 2AS CENTAUR R/B 3.0 18:25:27 10° SSW 18:33:14 65° ESE 18:41:04 10° NE
Cosmos 1025 Rocket 4.0 18:31:57 10° NNW 18:36:11 49° W 18:40:26 10° SSW
Cosmos 1634 Rocket 4.1 18:31:12 10° SSE 18:37:05 48° E 18:43:00 10° NNE
ATLAS 3B R/B 3.6 18:33:56 10° NNW 18:40:05 33° NE 18:42:34 26° ENE
SPOT 3 Rocket 4.5 18:40:10 28° ENE 18:40:18 28° ENE 18:44:38 10° N
Abrixas rocket 2.7 18:39:52 10° NW 18:42:11 42° N 18:42:11 42° N
CREW DRAGON DEMO-1 DEB 3.5 18:41:43 10° NW 18:44:16 46° N 18:44:16 46° N
Cosmos 1125 Rocket 4.2 18:40:28 10° SW 18:45:40 56° WNW 18:50:55 10° NNE
Cosmos 1536 Rocket 4.3 18:41:39 10° NNW 18:45:59 53° W 18:50:21 10° S
SJ-6B 2.8 18:48:31 57° NE 18:48:31 57° NE 18:52:00 10° N
CZ-4 R/B 4.4 18:48:03 10° SW 18:50:51 17° W 18:53:39 10° NW
Cosmos 2285 Rocket 4.4 18:50:03 10° SSW 18:56:18 65° WNW 19:02:38 10° NNE
Cosmos 2195 Rocket 4.3 18:50:15 10° N 18:56:30 75° E 19:00:07 26° SSE
USA 238 DEB 4.4 18:50:02 10° NW 18:57:09 57° WSW 19:03:15 16° SSE
USA 238 4.4 18:50:08 10° NW 18:57:15 58° WSW 19:03:18 16° SSE
Cosmos 1627 Rocket 4.4 18:51:44 10° N 18:58:08 70° E 19:01:24 31° SSE
Cosmos 1674 3.5 18:54:36 10° NNW 18:58:21 51° W 19:00:17 25° SSW
Cosmos 2026 Rocket 3.9 18:53:01 10° N 18:59:24 68° E 19:02:16 34° SSE
Cosmos 1092 Rocket 3.9 18:53:21 10° N 18:59:33 89° E 19:04:17 18° S
Cosmos 1428 Rocket 4.3 19:01:41 10° N 19:07:57 75° E 19:10:06 43° SSE
ARGOS 4.1 19:03:09 10° S 19:08:15 45° W 19:13:25 10° NNW
Cosmos 1340 Rocket 4.5 19:15:11 25° N 19:15:11 25° N 19:16:57 10° N
Cosmos 2279 Rocket 4.0 19:12:59 56° ESE 19:13:35 59° E 19:19:43 10° NNE
CZ-2C R/B 2.9 19:09:03 10° N 19:14:37 71° WNW 19:20:12 10° SSW
Cosmos 1733 4.0 19:13:47 41° WSW 19:14:39 51° W 19:18:24 10° N
MOS 1 4.3 19:13:05 36° S 19:15:32 78° WSW 19:21:17 10° NNW
Lacrosse 5 rocket 3.8 19:18:09 10° NNW 19:20:43 15° NNE 19:20:43 15° NNE
Cosmos 2082 Rocket 3.3 19:17:17 10° N 19:21:17 30° NE 19:21:17 30° NE
DMSP B5D2-2 4.4 19:19:11 10° N 19:24:26 66° WNW 19:29:38 10° SSW
BREEZE-M DEB (TANK) 4.1 19:20:43 10° WNW 19:24:41 55° SSW 19:27:36 38° SSE
OBJECT-B 3.7 19:28:48 14° NNW 19:28:48 14° NNW 19:29:21 10° NNW
Cosmos 2142 Rocket 4.4 19:24:37 37° S 19:27:18 87° E 19:33:33 10° N
Ariane Rocket 3.9 19:28:06 30° SSW 19:30:07 46° W 19:35:01 10° NNW
H-2A R/B 4.4 19:28:22 10° SW 19:31:54 19° W 19:35:32 10° NW
Milstar 3 Cent rocket 3.9 19:29:01 10° SW 19:32:39 20° SSW 19:32:39 20° SSW
USA 234 4.0 19:38:14 37° SSW 19:38:14 37° SSW 19:42:10 10° SSW
Cosmos 1626 4.4 19:40:12 10° NNW 19:42:02 23° NW 19:42:02 23° NW
COSMOS 2406 3.4 19:42:43 10° NNW 19:47:56 67° WNW 19:47:56 67° WNW
ISS -0.4 19:47:35 10° NNW 19:47:46 11° NNW 19:47:46 11° NNW
Cosmos 2278 Rocket 3.0 19:44:08 10° SSW 19:51:32 43° N 19:55:24 10° NNE
Lacrosse 4 Rocket 3.9 19:51:54 10° NNW 19:52:52 16° NNW 19:52:52 16° NNW
Resurs 01 Rocket 3.7 20:03:26 24° NNW 20:03:26 24° NNW 20:05:17 10° NNW
Cosmos 1833 Rocket 3.7 20:07:53 10° NNW 20:11:54 44° NW 20:11:54 44° NW
ATLAS 2AS CENTAUR R/B 4.3 20:17:32 10° WSW 20:24:45 36° NW 20:31:55 10° NNE
ATLAS 3B R/B 3.3 20:24:20 10° NW 20:29:50 52° WNW 20:29:50 52° WNW
Cosmos 2082 Rocket 4.5 21:01:17 10° NW 21:03:08 20° NW 21:03:08 20° NW
